This is the latest recevied weather packets stored in our database for station/object YO6FNF-10. If no packets are shown the sender has not sent any weather packets the latest 10 day(s).
| Time | Temp. | Humidity | Pressure | Rain* | Wind** | Luminosity | Snow |
|---|---|---|---|---|---|---|---|
| 1777936108 | 8.33° C | 65% | 1018.4 hPa | - | - | - | - |
| 1777935208 | 8.89° C | 64% | 1018.5 hPa | - | - | - | - |
| 1777934308 | 8.33° C | 67% | 1018.4 hPa | - | - | - | - |
| 1777933408 | 8.33° C | 67% | 1018.5 hPa | - | - | - | - |
| 1777932508 | 8.89° C | 62% | 1018.5 hPa | - | - | - | - |
| 1777931608 | 9.44° C | 62% | 1018.4 hPa | - | - | - | - |
| 1777930707 | 10° C | 61% | 1018.3 hPa | - | - | - | - |
| 1777929807 | 10.56° C | 60% | 1018.2 hPa | - | - | - | - |
| 1777928907 | 10.56° C | 59% | 1018.1 hPa | - | - | - | - |
| 1777928007 | 11.11° C | 59% | 1018.1 hPa | - | - | - | - |
| 1777927107 | 11.67° C | 57% | 1018 hPa | - | - | - | - |
| 1777926207 | 12.22° C | 55% | 1017.8 hPa | - | - | - | - |
| 1777925306 | 12.22° C | 54% | 1017.8 hPa | - | - | - | - |
| 1777924406 | 12.78° C | 52% | 1017.9 hPa | - | - | - | - |
| 1777923506 | 13.33° C | 49% | 1017.7 hPa | - | - | - | - |
| 1777922606 | 13.89° C | 50% | 1017.8 hPa | - | - | - | - |
| 1777921706 | 14.44° C | 49% | 1017.6 hPa | - | - | - | - |
| 1777920805 | 15° C | 51% | 1017.7 hPa | - | - | - | - |
| 1777919905 | 15.56° C | 49% | 1017.6 hPa | - | - | - | - |
| 1777919005 | 16.11° C | 45% | 1017.4 hPa | - | - | - | - |
| 1777918105 | 17.22° C | 40% | 1017.4 hPa | - | - | - | - |
| 1777917205 | 17.78° C | 42% | 1017.1 hPa | - | - | - | - |
| 1777916304 | 18.33° C | 38% | 1016.9 hPa | - | - | - | - |
| 1777915404 | 18.89° C | 37% | 1016.8 hPa | - | - | - | - |
| 1777914504 | 19.44° C | 39% | 1016.8 hPa | - | - | - | - |
* Rain since midnight (hover to see other rain measurements)
** Current wind speed in m/s (hover to see current wind gust speed)